Weather History for KWDG - August, 2013

Change the Weather History Date:

Tuesday, August 13, 2013

  Actual Average Record
Temperature  
Mean Temperature 76 °F -  
Max Temperature 86 °F 89 °F 109 °F (2010)
Min Temperature 66 °F 68 °F 60 °F (2002)
Cooling Degree Days 11    
Growing Degree Days 26 (Base 50)    
Moisture  
Dew Point 69 °F    
Average Humidity 88    
Maximum Humidity 100    
Minimum Humidity 62    
Precipitation  
Precipitation 0.08 in - - ()
Sea Level Pressure  
Sea Level Pressure 30.04 in    
Wind  
Wind Speed 7 mph (ENE)    
Max Wind Speed 21 mph    
Max Gust Speed 29 mph    
Visibility 10 miles    
Events Rain , Thunderstorm    
Averages and records for this station are not official NWS values.
T = Trace of Precipitation, MM = Missing Value Source: NWS Daily Summary

Daily Weather History Graph

Daily Weather History Graph

Search for Another Location

Airport or City:

Trip Planner

Search our weather history database for the weather conditions in past years. The results will help you decide how hot, cold, wet, or windy it might be!

Date:

Astronomy

Aug. 13, 2013 Rise Set
Actual Time 6:47 AM CDT 8:23 PM CDT
Civil Twilight 6:20 AM CDT 8:51 PM CDT
Nautical Twilight 5:47 AM CDT 9:24 PM CDT
Astronomical Twilight 5:12 AM CDT 9:58 PM CDT
Moon 1:30 PM CDT (8/13) No Moon Set
Length of Visible Light 14h 31m
Length of Day
13h 36m
Waxing Crescent, 42% of the Moon is Illuminated
Aug 13
Waxing Crescent
Aug 14
First Quarter
Aug 20
Full
Aug 28
Last Quarter
Sep 5
New

Hourly Weather History & Observations

Time (CDT) Temp. Heat Index Dew Point Humidity Pressure Visibility Wind Dir Wind Speed Gust Speed Precip Events Conditions
12:15 AM 73.4 °F - 69.8 °F 88% 30.00 in 10.0 mi NNE 6.9 mph - N/A   Mostly Cloudy
12:35 AM 73.4 °F - 69.8 °F 88% 30.00 in 10.0 mi NE 12.7 mph - N/A   Overcast
12:55 AM 71.6 °F - 69.8 °F 94% 30.01 in 10.0 mi NE 10.4 mph - N/A   Overcast
1:15 AM 71.6 °F - 69.8 °F 94% 30.01 in 10.0 mi ENE 10.4 mph - N/A   Scattered Clouds
1:35 AM 71.6 °F - 69.8 °F 94% 30.01 in 10.0 mi ENE 8.1 mph - N/A   Clear
1:55 AM 71.6 °F - 69.8 °F 94% 30.01 in 10.0 mi ENE 4.6 mph - N/A   Scattered Clouds
2:15 AM 71.6 °F - 68.0 °F 88% 30.01 in 10.0 mi Calm Calm - N/A   Scattered Clouds
2:35 AM 71.6 °F - 69.8 °F 94% 29.99 in 10.0 mi SE 3.5 mph - N/A   Scattered Clouds
2:55 AM 71.6 °F - 68.0 °F 88% 29.99 in 10.0 mi ENE 6.9 mph - N/A   Scattered Clouds
3:15 AM 71.6 °F - 69.8 °F 94% 29.99 in 10.0 mi SE 4.6 mph - N/A   Scattered Clouds
3:35 AM 71.6 °F - 69.8 °F 94% 30.00 in 10.0 mi North 5.8 mph - N/A Thunderstorm Mostly Cloudy
3:55 AM 71.6 °F - 69.8 °F 94% 30.02 in 10.0 mi NNW 8.1 mph - N/A Rain , Thunderstorm Light Thunderstorms and Rain
4:15 AM 71.6 °F - 69.8 °F 94% 30.03 in 7.0 mi Calm Calm - 0.02 in Rain , Thunderstorm Heavy Thunderstorms and Rain
4:35 AM 71.6 °F - 69.8 °F 94% 30.03 in 7.0 mi Calm Calm - 0.07 in Rain , Thunderstorm Thunderstorms and Rain
4:55 AM 71.6 °F - 71.6 °F 100% 30.03 in 10.0 mi Calm Calm - 0.08 in Thunderstorm Unknown
5:15 AM 71.6 °F - 71.6 °F 100% 30.03 in 10.0 mi Calm Calm - N/A   Overcast
5:35 AM 71.6 °F - 69.8 °F 94% 30.02 in 10.0 mi ENE 3.5 mph - N/A   Overcast
5:55 AM 71.6 °F - 69.8 °F 94% 30.01 in 10.0 mi ENE 5.8 mph - N/A   Scattered Clouds
6:17 AM 71.6 °F - 71.6 °F 100% 30.01 in 10.0 mi NE 9.2 mph - N/A   Mostly Cloudy
6:50 AM 71.6 °F - 69.8 °F 94% 30.01 in 10.0 mi East 5.8 mph - N/A   Mostly Cloudy
7:50 AM 71.6 °F - 69.8 °F 94% 30.01 in 10.0 mi NE 5.8 mph - N/A   Mostly Cloudy
8:50 AM 73.4 °F - 71.6 °F 94% 30.03 in 10.0 mi ENE 5.8 mph - N/A   Mostly Cloudy
9:35 AM 75.2 °F - 71.6 °F 89% 30.05 in 10.0 mi East 4.6 mph - N/A   Mostly Cloudy
9:50 AM 75.2 °F - 71.6 °F 89% 30.06 in 10.0 mi Calm Calm - N/A   Overcast
10:50 AM 77.0 °F - 71.6 °F 83% 30.06 in 10.0 mi North 9.2 mph - N/A   Overcast
11:30 AM 78.8 °F - 71.6 °F 78% 30.08 in 10.0 mi North 9.2 mph - N/A   Overcast
12:50 PM 80.6 °F 84.6 °F 71.6 °F 74% 30.06 in 10.0 mi North 9.2 mph - N/A   Mostly Cloudy
1:50 PM 82.4 °F 87.2 °F 71.6 °F 70% 30.05 in 10.0 mi North 9.2 mph - N/A   Mostly Cloudy
2:50 PM 86.0 °F 91.8 °F 71.6 °F 62% 30.03 in 10.0 mi NE 9.2 mph - N/A   Mostly Cloudy
4:50 PM 84.2 °F 88.4 °F 69.8 °F 62% 30.00 in 10.0 mi NE 11.5 mph - N/A   Mostly Cloudy
6:50 PM 82.4 °F 85.4 °F 68.0 °F 62% 30.02 in 10.0 mi East 11.5 mph - N/A   Mostly Cloudy
7:50 PM 73.4 °F - 66.2 °F 78% 30.09 in 3.0 mi North 20.7 mph 28.8 mph N/A Rain Heavy Rain
8:50 PM 73.4 °F - 66.2 °F 78% 30.05 in 5.0 mi ENE 16.1 mph 23.0 mph N/A Rain Rain
9:15 PM - - - N/A% 30.06 in 10.0 mi East 18.4 mph 25.3 mph N/A   Scattered Clouds
9:35 PM - - - N/A% 30.06 in 10.0 mi ESE 16.1 mph 20.7 mph N/A   Clear
9:55 PM 68.0 °F - 66.2 °F 94% 30.06 in 10.0 mi ESE 15.0 mph 20.7 mph N/A   Clear
10:15 PM 68.0 °F - 64.4 °F 88% 30.06 in 10.0 mi ESE 10.4 mph 18.4 mph N/A   Clear
10:35 PM 68.0 °F - 64.4 °F 88% 30.07 in 10.0 mi SE 3.5 mph - N/A   Clear
10:55 PM 68.0 °F - 64.4 °F 88% 30.08 in 10.0 mi NNE 4.6 mph - N/A   Clear
11:15 PM 68.0 °F - 64.4 °F 88% 30.09 in 10.0 mi Calm Calm - N/A   Clear
11:35 PM 66.2 °F - 64.4 °F 94% 30.10 in 10.0 mi North 5.8 mph - N/A   Clear
11:55 PM 66.2 °F - 64.4 °F 94% 30.10 in 10.0 mi Calm Calm - N/A   Clear